Flag for Croatia Weather past 2 weeks in Zagreb, Croatia

Now
72 °F

Passing clouds.


Feels Like: 77 °F
Forecast: 52 / 75 °F
Wind: 3 mph from East

Location: Zagreb / Pleso

Current Time: Aug 28, 2014 at 6:03:37 PM

Latest Report: Aug 28, 2014 at 5:30 PM


Visibility: N/A

Pressure: 30.09 "Hg

Humidity: 50%

Dew point: 52 °F

Location of ZagrebLocation

Historic Weather in Zagreb — Graph

°F

Zagreb temperature yesterday

Maximum temperature yesterday: 73 °F (at 3:30 PM)
Minimum temperature yesterday: 59 °F (at 11:30 PM)
Average temperature yesterday: 66 °F

Past Weeks' High & Low Weather Summary

 TemperatureHumidityPressure
High82 °F (Aug 13, 5:00 PM)100% (Aug 14, 7:30 AM)30.15 "Hg (Aug 14, 7:30 AM)
Low50 °F (Aug 18, 5:30 AM)41% (Aug 17, 2:30 PM)29.68 "Hg (Aug 13, 6:00 PM)
Average65 °F82%29.96 "Hg
* Reported Aug 13 5:00 PM — Aug 28 5:00 PM, Zagreb, Weather by CustomWeather, © 2014

Note: Actual official high and low records may vary slightly from our data, if they occured in-between our weather recording intervals... More about our weather records

Advertising

Zagreb weather history for previous 24 hours

 ConditionsComfort  
Time TempWeatherWind HumidityBarometerVisibility
5:00 PM
Aug 28
72 °FPassing clouds.3 mph50%30.09 "HgN/A
4:30 PM73 °FSunny.2 mph47%30.09 "Hg10 mi
4:00 PM73 °FPassing clouds.5 mph47%30.09 "HgN/A
3:30 PM73 °FSunny.3 mph50%30.09 "Hg10 mi
3:00 PM72 °FSunny.2 mph50%30.09 "Hg10 mi
2:30 PM72 °FPassing clouds.3 mph44%30.09 "HgN/A
1:30 PM72 °FPassing clouds.3 mph47%30.12 "HgN/A
1:00 PM70 °FPassing clouds.2 mph50%30.12 "HgN/A
12:30 PM70 °FPassing clouds.3 mph60%30.12 "HgN/A
12:00 PM70 °FPassing clouds.5 mph57%30.12 "HgN/A
11:30 AM68 °FPassing clouds.5 mph60%30.12 "HgN/A
11:00 AM66 °FPassing clouds.2 mph64%30.15 "HgN/A
10:30 AM66 °FSunny.1 mph73%30.15 "Hg10 mi
10:00 AM64 °FSunny.No wind73%30.15 "Hg10 mi
9:30 AM63 °FSunny.No wind83%30.15 "Hg10 mi
9:00 AM61 °FSunny.1 mph88%30.12 "Hg10 mi
8:30 AM61 °FSunny.No wind88%30.12 "Hg10 mi
8:00 AM59 °FSunny.1 mph94%30.12 "Hg10 mi
7:30 AM57 °FPassing clouds.2 mph94%30.12 "HgN/A
7:00 AM55 °FClear.No wind100%30.12 "Hg10 mi
6:30 AM55 °FFog.2 mph100%30.12 "HgN/A
6:00 AM57 °FFog.No wind100%30.12 "HgN/A
5:30 AM57 °FClear.No wind100%30.12 "Hg10 mi
5:00 AM59 °FLight rain. Clear.1 mph94%30.09 "HgN/A
4:30 AM59 °FLight rain. Clear.1 mph94%30.09 "HgN/A
4:00 AM57 °FLight rain. Clear.2 mph100%30.12 "HgN/A
3:30 AM59 °FClear.2 mph94%30.09 "Hg10 mi
3:00 AM59 °FClear.2 mph94%30.09 "Hg10 mi
2:30 AM59 °FLight rain. Passing clouds.3 mph94%30.09 "HgN/A
2:00 AM59 °FLight rain. Passing clouds.2 mph94%30.09 "HgN/A
1:30 AM59 °FLight rain. Passing clouds.No wind94%30.09 "HgN/A
1:00 AM59 °FLight rain. Passing clouds.No wind88%30.09 "HgN/A
12:30 AM59 °FLight rain. Passing clouds.3 mph88%30.09 "HgN/A
12:00 AM59 °FLight rain. Passing clouds.3 mph88%30.07 "HgN/A
11:30 PM
Aug 27
59 °FLight rain. Passing clouds.2 mph94%30.07 "HgN/A
11:00 PM61 °FLight rain. Passing clouds.5 mph88%30.07 "HgN/A
10:30 PM61 °FLight rain. Passing clouds.3 mph94%30.07 "HgN/A
10:00 PM61 °FPassing clouds.3 mph94%30.04 "HgN/A
9:30 PM61 °FLight rain. Passing clouds.5 mph94%30.04 "HgN/A
9:00 PM61 °FSprinkles. Passing clouds.8 mph94%30.01 "HgN/A
8:00 PM64 °FPartly sunny.13 mph83%29.98 "HgN/A
7:30 PM68 °FPassing clouds.18 mph73%29.92 "HgN/A
7:00 PM72 °FPassing clouds.3 mph78%29.89 "HgN/A
6:30 PM73 °FPassing clouds.3 mph78%29.86 "HgN/A
6:00 PM73 °FPassing clouds.2 mph74%29.86 "HgN/A
Weather by CustomWeather, © 2014

See weather overviewHow to use our weather pages